Regional Weather Roundup
Issued by NWS

Home | Current Version | Previous Version | Graphics & Text | Print | Product List | Glossary On
Versions: 1 2 3 4 5 6 7 8 9 10 11 12 13 14 15 16 17 18 19 20 21 22 23 24 25 26 27 28 29 30 31 32 33 34 35 36 37 38 39 40 41 42 43 44 45 46 47 48 49 50
000
ASUS45 KBOU 082307
RWRCO

WEATHER ROUNDUP FOR COLORADO
NATIONAL WEATHER SERVICE DENVER/BOULDER CO
400 PM MST THU DEC 08 2016

NOTE: "FAIR" INDICATES FEW OR NO CLOUDS BELOW 12000 FEET WITH NO
SIGNIFICANT WEATHER AND/OR OBSTRUCTIONS TO VISIBILITY.

COZ001>005-013-030-031-090000-
...NORTHWEST COLORADO...

CITY           SKY/WX    TMP DP  RH WIND       PRES   REMARKS
CRAIG          CLOUDY    19  11  70 E9        30.21F WCI   8
HAYDEN         CLOUDY    14   7  73 SE8       30.20F VSB 1   WCI   3
MEEKER         CLOUDY    25  11  55 NE3       30.19R
MOUNT WERNER   NOT AVBL
STEAMBOAT SPGS CLOUDY    12   7  79 CALM      30.20F
WALDEN           N/A     18   7  62 S10       30.13S WCI   6
$$

COZ006>008-011-090000-
...WEST CENTRAL VALLEYS...

CITY           SKY/WX    TMP DP  RH WIND       PRES   REMARKS
GRAND JUNCTION CLOUDY    29   7  39 CALM      30.26S
MONTROSE       CLOUDY    29   8  41 CALM      30.26F
EAGLE          CLOUDY    19   3  49 W3        30.25S
RIFLE          CLOUDY    24   6  46 N3        30.26F
DELTA          NOT AVBL
NUCLA          CLOUDY    32   5  32 CALM      30.28S
$$

COZ017>023-064>068-090000-
...SOUTHWEST COLORADO...

CITY           SKY/WX    TMP DP  RH WIND       PRES   REMARKS
DURANGO        CLOUDY    35   8  32 CALM      30.28S
CORTEZ         CLOUDY    38  12  34 SW6       30.27R
PAGOSA SPRINGS CLOUDY    32   9  37 CALM      30.28R
TELLURIDE      FLURRIES  28  16  60 CALM      30.23S
WOLF CREEK PAS FAIR      12   1  62 SW20G30   30.23S WCI  -6
$$

COZ009-010-012-014-032>034-037-058>063-090000-
...CENTRAL COLORADO...

CITY           SKY/WX    TMP DP  RH WIND       PRES   REMARKS
ASPEN          NOT AVBL
BUENA VISTA    CLOUDY    28   7  40 W22G32    30.12R WCI  15
COPPER MTN     LGT SNOW  14   7  73 MISG      30.07R VSB 1
BERTHOUD PASS  LGT SNOW   3  -8  60 W16G28    30.00S WCI -16
COTTONWOOD PAS LGT SNOW  23  10  58 W12G32    30.08S WCI  12
GUNNISON       CLOUDY    18   3  52 S5        30.25S WCI  11
KREMMLING      CLOUDY    14   3  62 CALM      30.22S
LEADVILLE      LGT SNOW  17  11  77 N8        30.08R WCI   7
MONARCH PASS   LGT SNOW  10   1  67 W35G45    30.22R VSB 3/4 WCI -13
SALIDA         FAIR      34   5  29 W7        30.23R WCI  28
SUNLIGHT       SNOW      10   9  92 SW16G26   30.13S VSB 1/2 WCI  -7
WILKERSON PASS CLOUDY    14   3  62 SW20G25   30.06S WCI  -3
$$

COZ069>075-090000-
...SAN LUIS VALLEY/SANGRE DE CRISTO MOUNTAINS...

CITY           SKY/WX    TMP DP  RH WIND       PRES   REMARKS
ALAMOSA        FAIR      29   9  43 CALM      30.20F
LA VETA PASS   FAIR      21  10  63 NE31G40   30.12S WCI   3
SAGUACHE       MOCLDY    27  -2  28 SE5       30.23R WCI  21
$$

COZ035-036-038>040-090000-
...NORTHERN COLORADO FRONT RANGE...

CITY           SKY/WX    TMP DP  RH WIND       PRES   REMARKS
DENVER INTL AP MOCLDY    13   7  77 N10       30.27S WCI   0
DMNS CITY PARK   N/A     15   6  68 NE7G15    30.28S WCI   5
AURORA         MOCLDY    16   9  72 N7        30.26S WCI   7
FRONT RANGE AP NOT AVBL
ERIE MUNI ARPT FAIR      12   6  76 N5        30.31F WCI   4
BOULDER MUN AP FAIR      10   5  79 NW3       30.30S
CENTENNIAL     FAIR      17   8  67 N7        30.23S WCI   8
BROOMFIELD       N/A     12   7  79 N5        30.27F WCI   4
FORT COLLINS   FAIR      10   1  67 CALM      30.33S
LONGMONT       FAIR      13   4  65 N3        30.34F
$$

COZ041-046-047-076>085-087-088-090000-
...PIKES PEAK/PALMER DIVIDE AND SOUTHERN FOOTHILLS...

CITY           SKY/WX    TMP DP  RH WIND       PRES   REMARKS
COLO. SPRINGS  LGT SNOW  12   7  80 S12       30.29R VSB 3/4 WCI  -2
A. F. ACADEMY  LGT SNOW  10   5  79 S12       30.23F WCI  -4
SCHRIEVER AFB  NOT AVBL
ELLICOTT       CLOUDY   N/A N/A N/A SW8         N/A
FALCON         LGT SNOW   9   5  83 S9        30.24R WCI  -4
FORT CARSON    NOT AVBL
LIMON          FAIR      13   3  64 S13       30.32S WCI  -2
MONUMENT HILL  FAIR       9   3  78 S16       30.19F WCI  -9
TRINIDAD       FAIR      24   7  48 E5        30.26F WCI  18
$$

COZ042>045-048>051-090-091-090000-
...NORTHEAST COLORADO...

CITY           SKY/WX    TMP DP  RH WIND       PRES   REMARKS
GREELEY ARPT   FAIR      12   3  67 CALM      30.35F
AKRON          FAIR      11   3  70 SE10      30.36S WCI  -3
BURLINGTON     FAIR      19   5  54 SE13      30.43F WCI   6
WRAY           FAIR      14   3  62 SE5       30.47F WCI   6
STERLING       FAIR      14   3  62 SE5       30.40F WCI   6
HOLYOKE        FAIR      19   5  53 SE5       30.46F WCI  13
FORT MORGAN    FAIR      13   5  69 NE9       30.36F WCI   1
$$

COZ086-089-092>099-090000-
...SOUTHEAST COLORADO...

CITY           SKY/WX    TMP DP  RH WIND       PRES   REMARKS
PUEBLO         CLOUDY    23   7  50 E5        30.35S WCI  17
LA JUNTA       MOCLDY    26   8  46 SE16      30.37F WCI  14
LAMAR          FAIR      24  -1  33 SE12      30.44F WCI  13
SPRINGFIELD      N/A     20   2  45 S15       30.42S WCI   6
$$



USA.gov is the U.S. government's official web portal to all federal, state and local government web resources and services.